Location: Betzi
(47.2343°N, 9.5260°E)
Time: 21:39:42
(UTC+00:00)

Cosmos 2181 Rocket - Pass Details

Date: 27 May 2022
Orbit: 952 x 1015 km, 82.9° (Epoch: 29 June)

Event Time Altitude Azimuth Distance (km) Brightness Sun altitude
Exits shadow 02:25:50 - 183° (S) 3,425 6.4 -9.6°
Reaches altitude 10° 02:27:42 10° 182° (S) 2,718 5.9 -9.4°
Maximum altitude 02:33:55 81° 97° (E) 982 4.1 -8.7°
Drops below altitude 10° 02:40:06 10° 11° (N) 2,700 7.2 -7.9°
Sets 02:42:36 0° 10° (N) 3,645 8.0 -7.6°
